Location: Caltech
(34.1382°N, 118.1253°W)
Time: 00:19:15
(UTC-07:00)

Gurwin Techsat 1B - Visible Passes

Search period start: 31 July 2016 00:00
Search period end: 10 August 2016 00:00
Orbit: 812 x 814 km, 98.6° (Epoch: 30 July)

Date Brightness Start Highest point End Pass type
(mag) Time Alt. Az. Time Alt. Az. Time Alt. Az.
31 Jul 10.6 02:00:50 10° NE 02:03:38 20° ENE 02:03:38 20° ENE visible
31 Jul 9.3 03:40:01 10° N 03:44:50 38° WNW 03:44:50 38° WNW visible
01 Aug 11.2 01:39:41 10° ENE 01:40:30 11° ENE 01:40:30 11° ENE visible
01 Aug 8.8 03:16:58 10° N 03:21:42 60° NW 03:21:42 60° NW visible
02 Aug 9.0 02:54:09 10° NNE 02:58:34 61° NE 02:58:34 61° NE visible
02 Aug 10.6 04:36:59 10° NW 04:38:42 12° WNW 04:39:47 11° WNW visible
03 Aug 9.8 02:31:35 10° NNE 02:35:26 38° ENE 02:35:26 38° ENE visible
03 Aug 10.2 04:12:33 10° NNW 04:16:13 19° WNW 04:16:38 19° WNW visible
04 Aug 10.5 02:09:19 10° NE 02:12:18 24° ENE 02:12:18 24° ENE visible
04 Aug 9.6 03:49:02 10° N 03:53:30 31° WNW 03:53:30 31° WNW visible
05 Aug 11.1 01:47:40 10° NE 01:49:10 14° ENE 01:49:10 14° ENE visible
05 Aug 9.1 03:25:52 10° N 03:30:22 49° NW 03:30:22 49° NW visible
06 Aug 9.0 03:02:58 10° NNE 03:07:14 59° N 03:07:14 59° N visible
07 Aug 9.6 02:40:17 10° NNE 02:44:05 43° NE 02:44:05 43° NE visible
07 Aug 10.4 04:21:50 10° NNW 04:24:57 16° WNW 04:25:18 16° WNW visible
08 Aug 10.4 02:17:53 10° NE 02:20:57 27° ENE 02:20:57 27° ENE visible
08 Aug 9.9 03:58:06 10° NNW 04:02:09 26° WNW 04:02:09 26° WNW visible
09 Aug 10.9 01:55:56 10° NE 01:57:49 16° ENE 01:57:49 16° ENE visible
09 Aug 9.4 03:34:49 10° N 03:39:01 40° NW 03:39:01 40° NW visible
